FREGAT DEB, 46095

Orbit data source: Space-Track

FREGAT DEB, 46095 is space debris in LEO originally from a launch on Mon, 18 Jul 2011 UTC launched from the Tyuratam Missile And Space Complex (TTMTR). Debris objects in space refer to the collection of defunct objects orbiting the Earth. Examples of debris include non-operational satellites, rocket bodies, and fragments generated from explosions, collisions, or faulty payload assembly.

Loading next visibility...
Identifier
46095, 2011-037JE
Orbit
LEO
Country
Flag of CISCIS
Related business
Manufacturer
Lavochkin
Mission
Spacecraft
Bus & Motor
Unknown
Mass
Unknown
Launch date (UTC)
2011-07-18 (14 years ago)
Launch vehicle
Unknown
Launch site
Tyuratam Missile And Space Complex (TTMTR)
Object type
Payload
Rocket body
Debris
Shape & HBR
Unknown shape, 0.1 m
Radar Cross Section
Medium (>0.1 m² and <1 m²)

Expand to show TLE details & history
Last TLE update: 2 months ago

TLE from 2 months ago
0 FREGAT DEB
1 46095U 11037JE  25239.19604887 -.00010014  00000-0 -23857+0 0  9992
2 46095  51.0198 171.1786 1496063 220.1747 127.8463  9.97701860181696
Epoch: 2025-08-27T04:42Z
TLE epoch observation values (Epoch: 2025-08-27T04:42:18.622Z)
Latitude
-0.00001°
Longitude
124.92412°
Altitude
3,684.219 km
Speed
5.959 km/s
True Right ascension
11h 24m 42s
True Declination
0° 00' 00"
Sunlit
Object was in daylight at epoch
Visualization orbit readout
Latitude
Unknown
Longitude
Unknown
Altitude
Unknown
Speed
Unknown
Apparent Right ascension
Unknown
Apparent Declination
Unknown
Sunlit
N/A
Visualization observer readout
Local Sidereal Time
18:48:06
Azimuth
Unknown
Elevation
Unknown
Doppler factor
Unknown
Orbital elements
Apogee altitude
4,100.537 km
Perigee altitude
1,373.211 km
Semi-major axis
9,115.011 km
Eccentricity
0.14961
Inclination
51.0198°
RAAN
171.1786°
Arg. of periapsis
220.1747°
True anomaly
139.89782°
Mean anomaly
127.8463°
Eccentric anomaly
134.01118°
Mean motion
2.49406 °/min
Orbital period
144.34 mins
BSTAR
-0.23857
Loading maneuver chart data...
Computing Atmospheric mass density...
Loading historical data...
Loading historical data...
Loading historical data...
Loading historical data...
Loading historical data...
Loading historical data...
Loading historical data...

Documentation

Showing up to 5 results
|